Regional & State Weather Roundups


144 
ASUS44 KHUN 152310
RWRHUN
       
WEATHER ROUNDUP FOR THE TENNESSEE VALLEY
NATIONAL WEATHER SERVICE HUNTSVILLE AL
500 PM CST FRI DEC 15 2017
ALZ001>004-160000-
NORTHWEST ALABAMA
  
CITY           SKY/WX    TMP DP  RH WIND       PRES   REMARKS
COURTLAND HCN    N/A     36 N/A N/A W6          N/A  WCI  31          
RUSSELLVILLE     N/A     34 N/A N/A MISG        N/A                   
SHOALS AIRPORT CLEAR     37  23  56 SW3       30.20R                  
SHOALS TVA RES   N/A     37 N/A N/A MISG        N/A                   
$$
ALZ005>007-016-160000-
NORTH CENTRAL ALABAMA
  
CITY           SKY/WX    TMP DP  RH WIND       PRES   REMARKS
CULLMAN AG STN   N/A     36 N/A N/A N3          N/A                   
DECATUR AP     CLEAR     35  25  66 CALM      30.20S                  
HUNTSVILLE AP  CLOUDY    33  25  72 CALM      30.19S                  
MERIDIANVILLE  CLEAR     32  23  69 SW3       30.18S                  
REDSTONE ARSN  CLOUDY    33  24  68 SW3       30.18F                  
VINEMONT AP    FAIR      32  22  67 CALM      30.20R                  
$$
 
ALZ008>010-160000-
NORTHEAST ALABAMA
  
CITY           SKY/WX    TMP DP  RH WIND       PRES   REMARKS
ALBERTVILLE    CLOUDY    32  28  86 NW5       30.17R WCI  27          
FORT PAYNE     CLEAR     32  21  64 CALM      30.17R                  
SCOTTSBORO AP  CLEAR     34  25  69 CALM      30.19S                  
SCOTTSBORO HCN   N/A     34 N/A N/A MISG        N/A                   
VALLEY HEAD      N/A     32 N/A N/A MISG        N/A                   
$$
TNZ076-096-097-160000-
SOUTHEASTERN MIDDLE TENNESSEE
  
CITY           SKY/WX    TMP DP  RH WIND       PRES   REMARKS
TULLAHOMA      CLEAR     32  23  69 CALM      30.15R                  
WINCHESTER     CLEAR     30  23  74 CALM      30.17S                  
$$
 
...SURROUNDING SITES...
  
CITY           SKY/WX    TMP DP  RH WIND       PRES   REMARKS
ATLANTA        MOCLDY    37  24  59 NW14      30.13R WCI  28          
ANNISTON       MOCLDY    37  23  56 W5        30.19R WCI  33          
BIRMINGHAM     MOCLDY    37  23  56 NW5       30.22R WCI  33          
CHATTANOOGA    PTCLDY    34  21  59 W5        30.18R WCI  30          
CORINTH        FAIR      41  25  52 SW7       30.19R                  
DALTON         CLOUDY    32  25  74 CALM      30.20R                  
GADSDEN        PTCLDY    35  24  64 NW3       30.21R                  
GOLDEN TRNGL   CLEAR     39  25  57 CALM      30.22S                  
HALEYVILLE     FAIR      34  24  67 CALM      30.21R                  
JACKSON TN     CLEAR     41  27  57 SW5       30.17R                  
MEMPHIS        PTCLDY    43  26  51 S5        30.18R                  
NASHVILLE      CLEAR     39  22  50 CALM      30.17R                  
OXFORD MS      FAIR      39  25  56 SW3       30.21S                  
ROME           CLOUDY    36  24  62 NW3       30.17R                  
SAVANNAH       CLEAR     41  25  52 SW5       30.17S                  
SELMER         CLEAR     37  27  65 W3        30.17R                  
TUPELO         CLEAR     39  24  55 S3        30.21S                  
TUSCALOOSA     PTCLDY    39  27  62 NW3       30.22S                  
$$
...GULF COAST WEATHER...
  
CITY           SKY/WX    TMP DP  RH WIND       PRES   REMARKS
GULFPORT       PTCLDY    47  33  58 N9        30.19F                  
PASCAGOULA     PTCLDY    47  34  60 N7        30.20S                  
MOBILE         CLOUDY    46  32  58 N7        30.20R                  
GULF SHORES    CLOUDY    46  36  66 N6        30.19S                  
PENSACOLA      CLOUDY    48  34  58 N7        30.18S                  
DESTIN         CLOUDY    51  33  50 N12       30.18R                  
PANAMA CITY    CLOUDY    52  39  61 N8        30.16R                  
APPALACHICOLA  CLOUDY    57  44  62 N8        30.12R                  
$$